Regional Weather Roundup
Issued by NWS

Home | Current Version | Previous Version | Text Only | Print | Product List | Glossary On
Versions: 1 2 3 4 5 6 7 8 9 10 11 12 13 14 15 16 17 18 19 20 21 22 23 24 25 26 27 28
000
ASUS45 KBOI 061110
RWRID

IDAHO REGIONAL WEATHER ROUNDUP
NATIONAL WEATHER SERVICE BOISE ID
500 AM MDT FRI MAY 06 2016

NOTE: "FAIR" INDICATES FEW OR NO CLOUDS BELOW 12000 FEET
WITH NO SIGNIFICANT WEATHER AND/OR OBSTRUCTIONS TO VISIBILITY

IDZ012-014-061200-
SOUTHWEST IDAHO


CITY           SKY/WX    TMP DP  RH WIND       PRES   REMARKS
BOISE          CLOUDY    57  49  74 NW9       29.82S
CALDWELL       CLOUDY    58  49  72 W15       29.82F
MOUNTAIN HOME  CLOUDY    57  48  72 NW12      29.82S
$$

IDZ016-017-061200-
SOUTHCENTRAL IDAHO


CITY           SKY/WX    TMP DP  RH WIND       PRES   REMARKS
BURLEY         CLOUDY    55  45  68 W12G18    29.83R
JEROME         CLOUDY    52  45  77 SW6       29.87R
TWIN FALLS     MOCLDY    50  43  77 SW6       29.87S
$$

IDZ019>023-061200-
SOUTHEAST IDAHO


CITY           SKY/WX    TMP DP  RH WIND       PRES   REMARKS
IDAHO FALLS    CLOUDY    52  39  61 N6        29.91R
POCATELLO      CLOUDY    56  44  64 E9        29.88F
REXBURG        CLOUDY    55  35  47 W7        29.91R
$$

IDZ006-010-011-018-031-032-061200-
CENTRAL IDAHO MOUNTAINS


CITY           SKY/WX    TMP DP  RH WIND       PRES   REMARKS
MCCALL         CLOUDY    53  42  66 N12       29.93S
HAILEY         CLOUDY    55  45  67 NW16G23   29.93F
STANLEY          N/A     42  35  76 SE9       30.04R
SALMON         CLOUDY    48  37  66 CALM      29.92R
CHALLIS        LGT RAIN  52  40  63 NE6       29.97R
$$

IDZ002-004-006-007-026-061200-
NORTHERN IDAHO


CITY           SKY/WX    TMP DP  RH WIND       PRES   REMARKS
LEWISTON       MOCLDY    57  54  89 S7        29.95R
LOWELL           N/A     54  54 100 CALM      29.97S
COEUR D`ALENE  MOCLDY   N/A N/A N/A N14G21    29.96R
MULLAN PASS    FOG       41  41 100 CALM        N/A  VSB 3/4
$$




USA.gov is the U.S. government's official web portal to all federal, state and local government web resources and services.